Weather Roundup
Issued by NWS

Home | Current Version | Previous Version | Text Only | Print | Product List | Glossary On
Versions: 1 2 3 4 5 6 7 8 9 10 11 12 13 14 15 16 17 18 19 20 21 22 23 24 25 26 27 28 29 30 31 32 33 34 35 36 37 38 39 40 41 42 43 44 45 46 47 48 49 50
000
NZUS93 KARX 291710
HRRWXR

CURRENT HOURLY OBSERVATIONS ACROSS
MUCH OF THE UPPER MISSISSIPPI VALLEY
NATIONAL WEATHER SERVICE LA CROSSE WI
1200 PM CDT SUN MAY 29 2016


...SOUTHEAST MINNESOTA...


CITY           SKY/WX    TMP DP  RH WIND       PRES   REMARKS
ROCHESTER      PTSUNNY   71  62  73 W18G26    30.00R
ROCHESTER/MAYO PTSUNNY   71  58  64 W16G30    29.99R
WINONA         MOSUNNY   73  59  60 NW13G18   29.96R
AUSTIN         MOSUNNY   72  59  64 W14G20    30.01S
ALBERT LEA     MOSUNNY   72  61  68 W12       30.01S
DODGE CENTER   MOSUNNY   72  59  64 W15G24    30.00R
PRESTON        MOSUNNY   71  58  64 W17G23    30.01S
OWATONNA       MOSUNNY   72  61  68 W17       30.00R
FARIBAULT      MOSUNNY   72  63  73 W12       29.99R
$$

...ELSEWHERE IN MINNESOTA...


CITY           SKY/WX    TMP DP  RH WIND       PRES   REMARKS
MINNEAPOLIS    PTSUNNY   73  57  57 NW12G23   29.95R
INTNL FALLS    CLOUDY    58  54  86 NW9       29.85R
DULUTH         CLOUDY    63  56  78 W15G22    29.85R
RED WING       PTSUNNY   73  59  60 W17       29.94R
REDWOOD FALLS  MOSUNNY   74  59  59 W6G18     29.99S
MANKATO        MOSUNNY   72  57  60 W10G18    30.00R
WORTHINGTON    MOSUNNY   71  59  65 W16       30.05S
FAIRMONT       MOSUNNY   73  55  53 W14G20    30.02S
$$

...SOUTHWEST WISCONSIN...


CITY           SKY/WX    TMP DP  RH WIND       PRES   REMARKS
LA CROSSE      MOSUNNY   75  60  59 W12       29.96R
PRAIRIE DU CHI PTSUNNY   74  56  55 W14       30.00S
BOSCOBEL       PTSUNNY   75  59  57 W8G21     29.99R
LONE ROCK      MOSUNNY   75  59  57 W13       29.98S
PLATTEVILLE    PTSUNNY   73  61  65 W17G23    30.01F
FORT MC COY    PTSUNNY   72  60  65 W13G22    29.96R
CAMP DOUGLAS   PTSUNNY   72  59  64 W16G23    29.94S
MAUSTON-NEW LI CLOUDY    71  60  67 W14       29.95R
VIROQUA        PTSUNNY   71  58  64 W14G20    29.99R
WIS DELLS      CLOUDY    71  56  58 SW12G21   29.96S
$$

...ELSEWHERE IN WISCONSIN...


CITY           SKY/WX    TMP DP  RH WIND       PRES   REMARKS
MILWAUKEE      PTSUNNY   73  59  61 SW16G23   29.97S
MADISON        PTSUNNY   73  58  59 VRB7      29.96S
GREEN BAY      CLOUDY    70  64  81 SW14G23   29.88S
EAU CLAIRE     LGT RAIN  66  60  81 W13       29.92R
BLACK RVR FLS  CLOUDY    70  58  64 W13G21    29.94S
MEDFORD        DRIZZLE   63  61  92 W7        29.90S
WAUSAU         CLOUDY    70  59  68 W17       29.88R
WIS RAPIDS     CLOUDY    71  57  61 W14G21    29.93R
MARSHFIELD     CLOUDY    67  58  72 W12       29.91S
RICE LAKE      CLOUDY    66  58  74 W13       29.92S
$$

...NORTHEAST IOWA...


CITY           SKY/WX    TMP DP  RH WIND       PRES   REMARKS
WATERLOO       MOSUNNY   75  58  55 W14       30.03S
DUBUQUE        MOSUNNY   73  60  63 W14G23    30.04R
DECORAH        PTSUNNY   72  59  64 W8G18     30.01S
MASON CITY     MOSUNNY   73  61  65 W17G26    30.04F
CHARLES CITY   MOSUNNY   73  63  68 W14G21    30.04S
OELWEIN        MOSUNNY   73  61  64 W15G22    30.04S
$$

...ELSEWHERE IN IOWA...


CITY           SKY/WX    TMP DP  RH WIND       PRES   REMARKS
DES MOINES     MOSUNNY   77  59  53 SW9       30.08S
IOWA CITY      MOSUNNY   75  60  59 W14       30.07S
FORT DODGE     MOSUNNY   77  57  50 W9G17     30.07S
MARSHALLTOWN   MOSUNNY   74  61  63 W13       30.06S
CEDAR RAPIDS   MOSUNNY   74  63  68 W12       30.05S
$$

...NORTHERN ILLINOIS...


CITY           SKY/WX    TMP DP  RH WIND       PRES   REMARKS
CHICAGO-OHARE  PTSUNNY   75  61  61 W17G23    30.01R
CHICAGO-MIDWAY MOSUNNY   77  57  50 SW20G26   30.01R
MOLINE         MOSUNNY   77  61  57 W12       30.05S
ROCKFORD       PTSUNNY   73  60  63 W13       30.03F
PEORIA         MOSUNNY   79  59  50 W10       30.07R
$$

NOTE: "FAIR" INDICATES FEW OR NO CLOUDS BELOW 12,000 FEET WITH NO
SIGNIFICANT WEATHER AND/OR OBSTRUCTIONS TO VISIBILITY. WIND
SPEEDS ARE IN MILES-PER-HOUR.




USA.gov is the U.S. government's official web portal to all federal, state and local government web resources and services.